Location: Lake Crest
(37.6062°N, 88.9176°W)
Time: 15:05:26
(UTC+00:00)

Okean O Rocket - Pass Details

Date: 15 December 2019
Orbit: 624 x 644 km, 98.2° (Epoch: 25 January)

Event Time Altitude Azimuth Distance (km) Brightness Sun altitude
Rises 10:59:55 0° 21° (NNE) 2,935 5.1 -23.6°
Reaches altitude 10° 11:02:15 10° 29° (NNE) 2,026 4.4 -23.2°
Maximum altitude 11:06:22 38° 99° (E) 968 3.1 -22.4°
Drops below altitude 10° 11:10:29 10° 168° (SSE) 2,023 4.5 -21.6°
Sets 11:12:48 0° 176° (S) 2,930 5.3 -21.1°
